Flag for Central African Republic Weather past 2 weeks in Bimbo, Central African Republic

Now
77 °F

Clear.


Feels Like: 78 °F
Forecast: 71 / 83 °F
Wind: No wind

Location: Bangui Airport

Current Time: Jul 2, 2015 at 10:55:11 PM

Latest Report: Jul 2, 2015 at 10:00 PM


Visibility: 10 mi

Pressure: 29.95 "Hg

Humidity: 94%

Dew point: 75 °F

Location of BimboLocation

Historic Weather in Bimbo — Graph

°F

Bimbo temperature yesterday

Maximum temperature yesterday: 88 °F (at 1:00 PM)
Minimum temperature yesterday: 73 °F (at 4:00 AM)
Average temperature yesterday: 80 °F

Past Weeks' High & Low Weather Summary

 TemperatureHumidityPressure
High91 °F (Jun 18, 1:00 PM)100% (Jun 18, 4:00 AM)30.07 "Hg (Jun 18, 4:00 AM)
Low72 °F (Jun 21, 3:00 AM)55% (Jun 21, 4:00 PM)29.77 "Hg (Jun 18, 3:00 PM)
Average79 °F85%29.94 "Hg
* Reported Jun 18 4:00 AM — Jul 2 10:00 PM, Bimbo, Weather by CustomWeather, © 2015

Note: Actual official high and low records may vary slightly from our data, if they occured in-between our weather recording intervals... More about our weather records

Advertising

Bimbo weather history for previous 24 hours

 ConditionsComfort  
Time TempWeatherWind HumidityBarometerVisibility
10:00 PM
Thu, Jul 2
77 °FClear.No wind94%29.95 "Hg10 mi
9:00 PM77 °FClear.2 mph94%29.95 "Hg10 mi
8:00 PM79 °FPassing clouds.2 mph94%N/A5 mi
7:00 PM81 °FPassing clouds.1 mph89%29.89 "Hg5 mi
6:00 PM82 °FThunderstorms. Broken clouds.3 mph84%29.86 "Hg5 mi
5:00 PM86 °FThunderstorms. Scattered clouds.1 mph70%29.83 "HgN/A
4:00 PM86 °FThunderstorms. Scattered clouds.3 mph70%29.83 "HgN/A
3:00 PM86 °FScattered clouds.3 mph70%29.83 "HgN/A
2:00 PM86 °FPartly sunny.5 mph75%29.86 "HgN/A
1:00 PM86 °FPartly sunny.3 mph70%29.89 "HgN/A
12:00 PM84 °FPartly sunny.5 mph79%29.92 "HgN/A
11:00 AM82 °FPartly sunny.3 mph84%29.95 "HgN/A
10:00 AM79 °FMostly cloudy.2 mph94%29.98 "HgN/A
9:00 AM77 °FThunderstorms. Mostly cloudy.2 mph94%29.98 "Hg5 mi
8:00 AM77 °FThunderstorms. Mostly cloudy.No wind94%29.98 "Hg2 mi
7:00 AM75 °FThunderstorms. Mostly cloudy.2 mph100%29.98 "Hg4 mi
6:00 AM75 °FThunderstorms. Broken clouds.1 mph100%29.95 "HgN/A
5:00 AM75 °FThunderstorms. Passing clouds.2 mph94%29.95 "HgN/A
4:00 AM75 °FPartly cloudy.No wind94%29.92 "HgN/A
3:00 AM75 °FPartly cloudy.No wind94%29.92 "HgN/A
2:00 AM75 °FPartly cloudy.No wind94%29.92 "HgN/A
12:00 AM77 °FThunderstorms. Partly cloudy.3 mph89%29.95 "HgN/A
11:00 PM
Wed, Jul 1
77 °FClear.2 mph94%29.95 "Hg10 mi
10:00 PM77 °FClear.2 mph94%29.95 "Hg10 mi
Weather by CustomWeather, © 2015

See weather overviewHow to use our weather pages